This demonstration page uses our WeatherBlox Daily Observations layout. Learn more.

Hourly Observations for January 3, 2019

Temp ( °F °C ) Dew Point ( °F °C ) Humidity (%) Winds ( mph kmh ) Pressure ( in mb ) Visibility ( mi km ) Precip ( " mm )
12:15 am 00:15 Clear 30 -1 20 -6.5 67 67 W 12 19 30.12 1020 10 16.0934 0 0
12:35 am 00:35 Clear 30 -1.2 20 -6.5 68 68 W 10 17 30.12 1020 10 16.0934 0 0
12:55 am 00:55 Clear 29 -1.6 20 -6.7 69 69 W 8 13 30.12 1020 10 16.0934 0 0
1:15 am 01:15 Clear 29 -1.5 20 -6.5 69 69 W 7 11 30.12 1020 10 16.0934 0 0
1:35 am 01:35 Clear 29 -1.6 20 -6.6 69 69 W 6 9 30.12 1020 10 16.0934 0 0
1:55 am 01:55 Clear 28 -2 20 -6.7 71 71 WSW 5 7 30.12 1020 10 16.0934 0 0
2:15 am 02:15 Clear 28 -2.4 19 -7 71 71 W 7 11 30.12 1020 10 16.0934 0 0
2:35 am 02:35 Clear 28 -2.5 20 -6.9 72 72 SW 6 9 30.12 1020 10 16.0934 0 0
2:55 am 02:55 Clear 25 -3.9 19 -7.3 78 78 Calm 30.18 1022 10 16.0934 0 0
3:15 am 03:15 Clear 24 -4.5 19 -7.5 80 80 WSW 7 11 30.18 1022 10 16.0934 0 0
3:35 am 03:35 Clear 22 -5.5 18 -8 83 83 WSW 6 9 30.18 1022 10 16.0934 0 0
3:55 am 03:55 Clear 21 -6.2 17 -8.5 84 84 WSW 5 7 30.21 1023 10 16.0934 0 0
4:15 am 04:15 Clear 20 -6.4 17 -8.4 86 86 WSW 5 7 30.21 1023 10 16.0934 0 0
4:35 am 04:35 Clear 20 -6.6 17 -8.6 86 86 WSW 6 9 30.18 1022 10 16.0934 0 0
4:55 am 04:55 Clear 20 -6.4 16 -9.1 81 81 WSW 3 6 30.15 1021 10 16.0934 0 0
5:15 am 05:15 Clear 21 -6.1 17 -8.6 83 83 SW 3 6 30.15 1021 10 16.0934 0 0
5:35 am 05:35 Clear 20 -6.5 16 -9 83 83 WSW 3 6 30.18 1022 10 16.0934 0 0
5:55 am 05:55 Clear 21 -6.1 16 -8.8 81 81 W 6 9 30.15 1021 10 16.0934 0 0
6:15 am 06:15 Clear 24 -4.7 16 -8.9 73 73 Calm 30.15 1021 10 16.0934 0 0
6:35 am 06:35 Clear 20 -6.5 15 -9.6 79 79 W 7 11 30.18 1022 10 16.0934 0 0
6:55 am 06:55 Clear 20 -6.4 15 -9.5 79 79 WNW 10 17 30.12 1020 10 16.0934 0 0
7:15 am 07:15 Clear 20 -6.5 15 -9.6 79 79 WNW 10 17 30.12 1020 10 16.0934 0 0
7:35 am 07:35 Clear 20 -6.4 15 -9.7 78 78 Calm 30.12 1020 10 16.0934 0 0
7:55 am 07:55 Clear 21 -6.1 15 -9.6 77 77 WSW 3 6 30.12 1020 10 16.0934 0 0
8:15 am 08:15 Sunny 21 -6.2 15 -9.5 78 78 SW 9 15 30.15 1021 10 16.0934 0 0
8:35 am 08:35 Sunny 20 -6.7 15 -9.5 81 81 WSW 7 11 30.18 1022 10 16.0934 0 0
8:55 am 08:55 Sunny 20 -6.6 15 -9.6 79 79 WSW 7 11 30.18 1022 10 16.0934 0 0
9:15 am 09:15 Sunny 22 -5.6 16 -9.1 77 77 WNW 6 9 30.15 1021 10 16.0934 0 0
9:35 am 09:35 Sunny 22 -5.6 15 -9.3 75 75 W 8 13 30.18 1022 10 16.0934 0 0
9:55 am 09:55 Sunny 22 -5.4 16 -8.9 77 77 W 10 17 30.18 1022 10 16.0934 0 0
10:15 am 10:15 Sunny 24 -4.2 17 -8.4 73 73 W 7 11 30.15 1021 10 16.0934 0 0
10:35 am 10:35 Sunny 29 -1.9 18 -7.7 65 65 W 7 11 30.12 1020 10 16.0934 0 0
10:55 am 10:55 Sunny 31 -0.6 19 -7.1 62 62 W 5 7 30.12 1020 10 16.0934 0 0
11:15 am 11:15 Sunny 33 0.7 20 -6.7 58 58 WSW 3 6 30.09 1019 10 16.0934 0 0
11:35 am 11:35 Sunny 35 1.5 22 -5.6 60 60 SW 5 7 30.09 1019 10 16.0934 0 0
11:55 am 11:55 Sunny 33 0.6 22 -5.6 64 64 SW 7 11 30.09 1019 10 16.0934 0 0
12:15 pm 12:15 Sunny 33 0.7 22 -5.5 64 64 WSW 7 11 30.06 1018 10 16.0934 0 0
12:35 pm 12:35 Sunny 34 0.9 23 -5 65 65 SW 6 9 30.06 1018 10 16.0934 0 0
12:55 pm 12:55 Sunny 33 0.6 23 -4.8 67 67 SW 9 15 30.03 1017 10 16.0934 0 0
1:15 pm 13:15 Sunny 36 2.2 23 -4.8 60 60 SSW 8 13 30 1016 10 16.0934 0 0
1:35 pm 13:35 Sunny 34 1.2 23 -4.8 65 65 WSW 8 13 30.03 1017 10 16.0934 0 0
1:55 pm 13:55 Sunny 34 1.2 24 -4.5 66 66 SW 8 13 30.03 1017 10 16.0934 0 0
2:15 pm 14:15 Sunny 34 1.3 23 -4.9 64 64 SW 8 13 30.03 1017 10 16.0934 0 0
2:35 pm 14:35 Sunny 35 1.9 24 -4.7 62 62 W 10 17 29.97 1015 10 16.0934 0 0
2:55 pm 14:55 Sunny 36 2 24 -4.2 64 64 W 10 17 29.97 1015 10 16.0934 0 0
3:15 pm 15:15 Sunny 36 2.2 25 -4.1 63 63 W 7 11 29.97 1015 10 16.0934 0 0
3:35 pm 15:35 Sunny 36 2.3 25 -3.9 64 64 W 10 17 29.97 1015 10 16.0934 0 0
3:55 pm 15:55 Sunny 37 2.5 25 -4.1 62 62 W 8 13 29.94 1014 10 16.0934 0 0
4:15 pm 16:15 Sunny 37 3 25 -4.1 60 60 W 9 15 29.94 1014 10 16.0934 0 0
4:35 pm 16:35 Sunny 36 2.3 26 -3.6 65 65 W 9 15 29.94 1014 10 16.0934 0 0
4:55 pm 16:55 Sunny 36 2.1 26 -3.6 66 66 W 8 13 29.94 1014 10 16.0934 0 0
5:15 pm 17:15 Sunny 35 1.5 26 -3.5 70 70 SW 5 7 29.97 1015 10 16.0934 0 0
5:35 pm 17:35 Clear 33 0.6 25 -3.7 73 73 SW 6 9 29.97 1015 10 16.0934 0 0
5:55 pm 17:55 Clear 32 0 25 -3.7 76 76 SW 8 13 30 1016 10 16.0934 0 0
6:15 pm 18:15 Clear 31 -0.3 25 -3.9 77 77 SSW 7 11 30 1016 10 16.0934 0 0
6:35 pm 18:35 Clear 31 -0.4 25 -3.7 79 79 SSW 6 9 30 1016 10 16.0934 0 0
6:55 pm 18:55 Clear 31 -0.5 25 -4 77 77 SSW 5 7 30 1016 10 16.0934 0 0
7:15 pm 19:15 Clear 32 -0.2 25 -4 76 76 SSW 9 15 30 1016 10 16.0934 0 0
7:35 pm 19:35 Clear 32 0 25 -4.1 74 74 S 8 13 30 1016 10 16.0934 0 0
7:55 pm 19:55 Clear 32 -0.1 25 -4.1 75 75 SSW 8 13 30 1016 10 16.0934 0 0
8:15 pm 20:15 Clear 32 0.2 25 -4.1 73 73 SSW 8 13 30 1016 10 16.0934 0 0
8:35 pm 20:35 Clear 33 0.3 24 -4.3 72 72 SSW 9 15 30 1016 10 16.0934 0 0
8:55 pm 20:55 Clear 32 0.2 24 -4.5 71 71 SSW 9 15 30 1016 10 16.0934 0 0
9:15 pm 21:15 Clear 32 0 24 -4.5 72 72 SW 10 17 30 1016 10 16.0934 0 0
9:35 pm 21:35 Clear 32 0.1 24 -4.5 72 72 WSW 6 9 30 1016 10 16.0934 0 0
9:55 pm 21:55 Clear 33 0.5 24 -4.7 68 68 WSW 6 9 30 1016 10 16.0934 0 0
10:15 pm 22:15 Clear 33 0.8 24 -4.4 69 69 WSW 9 15 30 1016 10 16.0934 0 0
10:35 pm 22:35 Clear 34 1.1 25 -4.1 69 69 W 10 17 30 1016 10 16.0934 0 0
10:55 pm 22:55 Clear 33 0.5 25 -4.1 72 72 W 9 15 30 1016 10 16.0934 0 0
11:15 pm 23:15 Clear 32 0 24 -4.2 74 74 W 7 11 30 1016 10 16.0934 0 0
11:35 pm 23:35 Clear 32 -0.2 24 -4.2 75 75 W 7 11 30 1016 10 16.0934 0 0
11:55 pm 23:55 Clear 33 0.3 25 -3.8 74 74 W 9 15 29.97 1015 10 16.0934 0 0

Powered by AerisWeather